Check out our new BloomSky Weather System.

Active alerts

Galveston, TX
  Details for Galveston, TX Coastal Flood Advisory  +1 additional alert


Thunder radar  blitzortung!


Rain radar more information rain snow radar


Visit our other weather sites:

Template documentation
and downloads

And another site



Weather Underground History page Text

Daily Summary for February 15, 2018 Units:  Metric    English   Both
« Previous Day
Next Day »
Daily Weekly Monthly Yearly Custom
  High: Low: Average:
Temperature: -17.8 °C 19.9 °C 22.3 °C
Dew Point: -17.8 °C 18.4 °C 19.8 °C
Humidity: Humidity % 62 % 86 %
Wind Speed: 0 km/h 0 km/h 7.2 km/h
Wind Gust: 0 km/h - -
Wind:- - South
Pressure: 0 hPa 1016.5 hPa -
Precipitation: 0 mm    
Historical Graphs
 
 
Tabular Data for February 15, 2018
Time Temperature Dew Point Pressure Wind Wind Speed Wind Gust Humidity Rainfall Rate (Hourly)
-17.8 °C -17.8 °C 0 hPa Calm     Humidity % 0 mm
00:04 20.6 °C 20.1 °C 1020.5 hPa South 8 km/h 17.7 km/h 97 % 0 mm
00:09 20.6 °C 20.1 °C 1020.9 hPa SE 9.7 km/h 17.7 km/h 97 % 0 mm
00:14 20.7 °C 20.2 °C 1020.9 hPa SSE 6.4 km/h 17.7 km/h 97 % 0 mm
00:19 20.7 °C 20.2 °C 1020.9 hPa SSE 3.2 km/h 17.7 km/h 97 % 0 mm
00:24 20.7 °C 20.2 °C 1020.9 hPa South 11.3 km/h 16.1 km/h 97 % 0 mm
00:29 20.7 °C 20.2 °C 1020.5 hPa SSW 6.4 km/h 24.1 km/h 97 % 0 mm
00:31 20.7 °C 20.2 °C 1020.5 hPa SSE 8 km/h 24.1 km/h 97 % 0 mm
00:36 20.7 °C 20.2 °C 1020.9 hPa SE 9.7 km/h 24.1 km/h 97 % 0 mm
00:41 20.7 °C 20.2 °C 1020.9 hPa SSW 4.8 km/h 19.3 km/h 97 % 0 mm
00:46 20.7 °C 20.2 °C 1020.9 hPa South 8 km/h 16.1 km/h 97 % 0 mm
00:51 20.7 °C 20.2 °C 1020.9 hPa South 3.2 km/h 16.1 km/h 97 % 0 mm
00:56 20.7 °C 20.2 °C 1021.2 hPa SSW 4.8 km/h 16.1 km/h 97 % 0 mm
01:01 20.7 °C 20.2 °C 1021.2 hPa South 4.8 km/h 14.5 km/h 97 % 0 mm
01:06 20.7 °C 20.2 °C 1020.9 hPa ESE 3.2 km/h 9.7 km/h 97 % 0 mm
01:11 20.7 °C 20.2 °C 1021.2 hPa South 4.8 km/h 9.7 km/h 97 % 0 mm
01:16 20.7 °C 20.2 °C 1021.2 hPa SE 4.8 km/h 9.7 km/h 97 % 0 mm
01:21 20.7 °C 20.2 °C 1021.2 hPa SSE 3.2 km/h 9.7 km/h 97 % 0 mm
01:26 20.7 °C 20.2 °C 1021.2 hPa SSE 6.4 km/h 9.7 km/h 97 % 0 mm
01:31 20.7 °C 20.2 °C 1021.2 hPa SSE 4.8 km/h 11.3 km/h 97 % 0 mm
01:36 20.7 °C 20.2 °C 1021.2 hPa SSE 4.8 km/h 11.3 km/h 97 % 0 mm
01:41 20.7 °C 20.2 °C 1020.9 hPa SE 9.7 km/h 16.1 km/h 97 % 0 mm
01:46 20.6 °C 20.1 °C 1021.2 hPa SSW 6.4 km/h 16.1 km/h 97 % 0 mm
01:51 20.6 °C 20.1 °C 1020.9 hPa SE 4.8 km/h 16.1 km/h 97 % 0 mm
01:56 20.6 °C 20.3 °C 1020.9 hPa South 4.8 km/h 14.5 km/h 98 % 0 mm
02:01 20.6 °C 20.3 °C 1020.9 hPa SSE 12.9 km/h 14.5 km/h 98 % 0 mm
02:06 20.5 °C 20.2 °C 1020.9 hPa SSW 4.8 km/h 17.7 km/h 98 % 0 mm
02:11 20.4 °C 20.1 °C 1020.9 hPa South 8 km/h 17.7 km/h 98 % 0 mm
02:16 20.4 °C 20.1 °C 1020.9 hPa South 6.4 km/h 17.7 km/h 98 % 0 mm
02:21 20.4 °C 20.1 °C 1020.9 hPa SSE 3.2 km/h 16.1 km/h 98 % 0 mm
02:26 20.3 °C 20 °C 1020.9 hPa SSE 3.2 km/h 16.1 km/h 98 % 0 mm
02:31 20.3 °C 20 °C 1021.2 hPa SSE 1.6 km/h 11.3 km/h 98 % 0 mm
02:36 20.3 °C 20 °C 1021.2 hPa South 4.8 km/h 8 km/h 98 % 0 mm
02:41 20.3 °C 20 °C 1021.2 hPa South 6.4 km/h 8 km/h 98 % 0 mm
02:46 20.3 °C 20 °C 1020.9 hPa SE 3.2 km/h 8 km/h 98 % 0 mm
02:51 20.2 °C 19.9 °C 1020.9 hPa SSE 1.6 km/h 8 km/h 98 % 0 mm
02:56 20.2 °C 19.9 °C 1020.9 hPa Calm   8 km/h 98 % 0 mm
03:01 20.2 °C 19.9 °C 1020.9 hPa South 1.6 km/h 4.8 km/h 98 % 0 mm
03:06 20.2 °C 19.9 °C 1020.9 hPa SSE 1.6 km/h 4.8 km/h 98 % 0 mm
03:11 20.2 °C 19.9 °C 1020.9 hPa Calm   4.8 km/h 98 % 0 mm
03:16 20.1 °C 19.8 °C 1020.9 hPa SE 1.6 km/h 3.2 km/h 98 % 0 mm
03:21 20.1 °C 19.8 °C 1020.9 hPa SE 1.6 km/h 3.2 km/h 98 % 0 mm
03:26 20.1 °C 19.9 °C 1020.9 hPa South 1.6 km/h 3.2 km/h 99 % 0 mm
03:31 20.1 °C 19.9 °C 1020.9 hPa SE 1.6 km/h 3.2 km/h 99 % 0 mm
03:36 20.1 °C 19.9 °C 1020.5 hPa Calm   3.2 km/h 99 % 0 mm
03:41 20.1 °C 19.9 °C 1020.5 hPa Calm   3.2 km/h 99 % 0 mm
03:46 20.1 °C 19.9 °C 1020.5 hPa SE 1.6 km/h 3.2 km/h 99 % 0 mm
03:51 20 °C 19.8 °C 1020.5 hPa SE 1.6 km/h 3.2 km/h 99 % 0 mm
03:56 20 °C 19.8 °C 1020.5 hPa Calm   3.2 km/h 99 % 0 mm
04:01 20 °C 19.8 °C 1020.5 hPa SE 1.6 km/h 4.8 km/h 99 % 0 mm
04:06 20 °C 19.8 °C 1020.5 hPa SE 1.6 km/h 4.8 km/h 99 % 0 mm
04:11 20 °C 19.8 °C 1020.5 hPa SE 4.8 km/h 4.8 km/h 99 % 0 mm
04:16 20 °C 19.8 °C 1020.5 hPa ESE 3.2 km/h 6.4 km/h 99 % 0 mm
04:21 20 °C 19.8 °C 1020.5 hPa SE 1.6 km/h 6.4 km/h 99 % 0 mm
04:26 20 °C 19.8 °C 1020.5 hPa SSE 1.6 km/h 6.4 km/h 99 % 0 mm
04:31 20 °C 19.8 °C 1020.2 hPa SE 3.2 km/h 4.8 km/h 99 % 0 mm
04:36 20 °C 19.8 °C 1020.2 hPa ESE 4.8 km/h 6.4 km/h 99 % 0 mm
04:41 20 °C 19.8 °C 1020.2 hPa East 3.2 km/h 8 km/h 99 % 0 mm
04:46 20 °C 19.8 °C 1020.2 hPa SE 4.8 km/h 8 km/h 99 % 0 mm
04:51 19.9 °C 19.7 °C 1020.2 hPa SE 6.4 km/h 8 km/h 99 % 0 mm
04:56 19.9 °C 19.7 °C 1020.2 hPa SE 3.2 km/h 6.4 km/h 99 % 0 mm
05:01 19.9 °C 19.7 °C 1020.2 hPa SSE 3.2 km/h 6.4 km/h 99 % 0 mm
05:06 19.9 °C 19.7 °C 1020.2 hPa SSE 1.6 km/h 6.4 km/h 99 % 0 mm
05:11 19.9 °C 19.7 °C 1020.2 hPa SSE 1.6 km/h 6.4 km/h 99 % 0 mm
05:16 19.9 °C 19.7 °C 1020.2 hPa SSE 3.2 km/h 6.4 km/h 99 % 0 mm
05:21 19.9 °C 19.7 °C 1020.2 hPa SSE 3.2 km/h 6.4 km/h 99 % 0 mm
05:26 19.9 °C 19.7 °C 1020.2 hPa SSE 3.2 km/h 8 km/h 99 % 0 mm
05:32 19.9 °C 19.7 °C 1020.2 hPa SSE 3.2 km/h 8 km/h 99 % 0 mm
05:37 19.9 °C 19.7 °C 1020.2 hPa SE 4.8 km/h 8 km/h 99 % 0 mm
05:42 19.9 °C 19.9 °C 1020.2 hPa SE 6.4 km/h 8 km/h 100 % 0 mm
05:47 19.9 °C 19.9 °C 1020.2 hPa SSE 1.6 km/h 8 km/h 100 % 0 mm
05:52 19.9 °C 19.9 °C 1020.2 hPa SSE 1.6 km/h 8 km/h 100 % 0 mm
05:57 19.9 °C 19.9 °C 1020.2 hPa SSW 3.2 km/h 6.4 km/h 100 % 0 mm
06:02 19.9 °C 19.9 °C 1020.2 hPa SE 4.8 km/h 6.4 km/h 100 % 0 mm
06:07 20 °C 20 °C 1020.5 hPa Calm   6.4 km/h 100 % 0 mm
06:12 19.9 °C 19.9 °C 1020.5 hPa South 1.6 km/h 6.4 km/h 100 % 0 mm
06:17 19.9 °C 19.9 °C 1020.5 hPa SE 3.2 km/h 6.4 km/h 100 % 0 mm
06:22 19.9 °C 19.9 °C 1020.5 hPa SE 3.2 km/h 6.4 km/h 100 % 0 mm
06:27 19.9 °C 19.9 °C 1020.5 hPa SSE 1.6 km/h 6.4 km/h 100 % 0 mm
06:32 20 °C 20 °C 1020.5 hPa SSE 1.6 km/h 6.4 km/h 100 % 0 mm
06:37 20 °C 20 °C 1020.5 hPa SSE 1.6 km/h 6.4 km/h 100 % 0 mm
06:42 20 °C 20 °C 1020.5 hPa South 1.6 km/h 6.4 km/h 100 % 0 mm
06:47 20 °C 20 °C 1020.5 hPa South 4.8 km/h 6.4 km/h 100 % 0 mm
06:52 20 °C 20 °C 1020.5 hPa South 3.2 km/h 6.4 km/h 100 % 0 mm
06:57 20 °C 20 °C 1020.5 hPa SSE 3.2 km/h 6.4 km/h 100 % 0 mm
07:02 20 °C 20 °C 1020.5 hPa South 4.8 km/h 6.4 km/h 100 % 0 mm
07:07 20 °C 20 °C 1020.5 hPa South 3.2 km/h 6.4 km/h 100 % 0 mm
07:12 20.1 °C 20.1 °C 1020.5 hPa SSE 4.8 km/h 6.4 km/h 100 % 0 mm
07:17 20.1 °C 20.1 °C 1020.5 hPa SSW 1.6 km/h 8 km/h 100 % 0 mm
07:22 20.1 °C 20.1 °C 1020.5 hPa South 4.8 km/h 8 km/h 100 % 0 mm
07:32 20.1 °C 20.1 °C 1020.5 hPa SE 3.2 km/h 8 km/h 100 % 0 mm
07:37 20.1 °C 20.1 °C 1020.5 hPa East 3.2 km/h 9.7 km/h 100 % 0 mm
07:42 20.2 °C 20.2 °C 1020.5 hPa SSW 6.4 km/h 9.7 km/h 100 % 0 mm
07:47 20.2 °C 20.2 °C 1020.5 hPa SSE 3.2 km/h 9.7 km/h 100 % 0 mm
07:52 20.2 °C 20.2 °C 1020.5 hPa South 4.8 km/h 9.7 km/h 100 % 0 mm
07:57 20.3 °C 20.3 °C 1020.5 hPa SSE 4.8 km/h 9.7 km/h 100 % 0 mm
08:02 20.3 °C 20.1 °C 1020.5 hPa SE 3.2 km/h 9.7 km/h 99 % 0 mm
08:07 20.4 °C 20.2 °C 1020.5 hPa ESE 4.8 km/h 11.3 km/h 99 % 0 mm
08:12 20.4 °C 20.2 °C 1020.5 hPa SSE 4.8 km/h 11.3 km/h 99 % 0 mm
08:17 20.4 °C 20.2 °C 1020.5 hPa SSE 3.2 km/h 12.9 km/h 99 % 0 mm
08:22 20.5 °C 20.3 °C 1020.5 hPa SW 6.4 km/h 12.9 km/h 99 % 0 mm
08:27 20.6 °C 20.4 °C 1020.5 hPa South 3.2 km/h 12.9 km/h 99 % 0 mm
08:32 20.6 °C 20.4 °C 1020.5 hPa South 6.4 km/h 11.3 km/h 99 % 0 mm
08:37 20.7 °C 20.5 °C 1020.9 hPa SSW 8 km/h 11.3 km/h 99 % 0 mm
08:42 20.8 °C 20.5 °C 1020.9 hPa SSE 8 km/h 11.3 km/h 98 % 0 mm
08:47 20.8 °C 20.5 °C 1020.9 hPa South 3.2 km/h 14.5 km/h 98 % 0 mm
08:52 20.9 °C 20.6 °C 1020.9 hPa SE 3.2 km/h 14.5 km/h 98 % 0 mm
08:57 21 °C 20.7 °C 1020.9 hPa SSE 3.2 km/h 16.1 km/h 98 % 0 mm
09:02 21.1 °C 20.6 °C 1020.9 hPa SSE 6.4 km/h 16.1 km/h 97 % 0 mm
09:07 21.2 °C 20.7 °C 1020.9 hPa SSE 4.8 km/h 17.7 km/h 97 % 0 mm
09:12 21.3 °C 20.8 °C 1020.9 hPa South 3.2 km/h 17.7 km/h 97 % 0 mm
09:17 21.4 °C 20.7 °C 1020.9 hPa SE 4.8 km/h 17.7 km/h 96 % 0 mm
09:22 21.5 °C 20.8 °C 1020.9 hPa SE 4.8 km/h 12.9 km/h 96 % 0 mm
09:27 21.6 °C 20.9 °C 1021.2 hPa East 4.8 km/h 12.9 km/h 96 % 0 mm
09:32 21.7 °C 20.9 °C 1021.2 hPa South 4.8 km/h 16.1 km/h 95 % 0 mm
09:37 21.8 °C 21 °C 1020.9 hPa SSW 6.4 km/h 16.1 km/h 95 % 0 mm
09:42 22 °C 21 °C 1020.9 hPa South 9.7 km/h 16.1 km/h 94 % 0 mm
09:47 22.2 °C 21 °C 1021.2 hPa SW 8 km/h 16.1 km/h 93 % 0 mm
09:52 22.2 °C 20.8 °C 1021.2 hPa SSW 6.4 km/h 16.1 km/h 92 % 0 mm
09:57 22.4 °C 21 °C 1021.2 hPa South 6.4 km/h 16.1 km/h 92 % 0 mm
10:02 22.4 °C 20.9 °C 1020.9 hPa South 6.4 km/h 20.9 km/h 91 % 0 mm
10:07 22.5 °C 21 °C 1021.2 hPa WSW 6.4 km/h 20.9 km/h 91 % 0 mm
10:12 22.6 °C 21.1 °C 1021.2 hPa South 16.1 km/h 20.9 km/h 91 % 0 mm
10:17 22.7 °C 21.2 °C 1021.2 hPa South 9.7 km/h 16.1 km/h 91 % 0 mm
10:22 22.9 °C 21 °C 1021.2 hPa SSW 11.3 km/h 16.1 km/h 89 % 0 mm
10:27 23.1 °C 21.2 °C 1020.9 hPa SSW 6.4 km/h 17.7 km/h 89 % 0 mm
10:32 23.1 °C 21.2 °C 1020.9 hPa South 11.3 km/h 17.7 km/h 89 % 0 mm
10:37 23.2 °C 21.3 °C 1021.2 hPa South 4.8 km/h 17.7 km/h 89 % 0 mm
10:42 23.2 °C 20.9 °C 1021.2 hPa SE 12.9 km/h 20.9 km/h 87 % 0 mm
10:47 23.2 °C 20.9 °C 1020.9 hPa SE 6.4 km/h 22.5 km/h 87 % 0 mm
10:52 23.4 °C 21.3 °C 1020.9 hPa South 11.3 km/h 22.5 km/h 88 % 0 mm
10:57 23.6 °C 21.1 °C 1020.9 hPa SSE 11.3 km/h 22.5 km/h 86 % 0 mm
11:02 23.8 °C 21.3 °C 1020.9 hPa SE 12.9 km/h 24.1 km/h 86 % 0 mm
11:07 24.2 °C 21.5 °C 1020.9 hPa SSW 12.9 km/h 24.1 km/h 85 % 0 mm
11:12 24.3 °C 21.4 °C 1020.9 hPa South 11.3 km/h 24.1 km/h 84 % 0 mm
11:17 24.1 °C 21 °C 1020.9 hPa SSE 6.4 km/h 20.9 km/h 83 % 0 mm
11:22 24 °C 21.1 °C 1020.5 hPa South 4.8 km/h 20.9 km/h 84 % 0 mm
11:27 24.2 °C 21.3 °C 1020.5 hPa SSE 9.7 km/h 20.9 km/h 84 % 0 mm
11:32 24.2 °C 21.1 °C 1020.5 hPa South 8 km/h 19.3 km/h 83 % 0 mm
11:37 24.2 °C 21.1 °C 1020.5 hPa SW 6.4 km/h 22.5 km/h 83 % 0 mm
11:42 24.2 °C 21.1 °C 1020.5 hPa SE 8 km/h 24.1 km/h 83 % 0 mm
11:47 24.3 °C 21 °C 1020.5 hPa SSE 6.4 km/h 24.1 km/h 82 % 0 mm
11:52 24.4 °C 21.1 °C 1020.2 hPa SSE 17.7 km/h 24.1 km/h 82 % 0 mm
11:57 24.5 °C 21.2 °C 1020.2 hPa South 14.5 km/h 17.7 km/h 82 % 0 mm
12:02 24.7 °C 21.2 °C 1020.2 hPa SE 16.1 km/h 17.7 km/h 81 % 0 mm
12:07 24.8 °C 21.3 °C 1020.2 hPa SSE 16.1 km/h 24.1 km/h 81 % 0 mm
12:12 25.1 °C 21.4 °C 1019.9 hPa SSE 12.9 km/h 27.4 km/h 80 % 0 mm
12:17 25.2 °C 21.3 °C 1019.9 hPa SE 14.5 km/h 27.4 km/h 79 % 0 mm
12:22 25.3 °C 21 °C 1019.9 hPa SSE 12.9 km/h 27.4 km/h 77 % 0 mm
12:27 25.3 °C 21.2 °C 1019.5 hPa South 11.3 km/h 27.4 km/h 78 % 0 mm
12:32 25.3 °C 21 °C 1019.5 hPa South 9.7 km/h 27.4 km/h 77 % 0 mm
12:37 25.2 °C 20.9 °C 1019.5 hPa SSW 12.9 km/h 29 km/h 77 % 0 mm
12:42 25.4 °C 21.1 °C 1019.2 hPa SSW 4.8 km/h 29 km/h 77 % 0 mm
12:47 25.6 °C 21.1 °C 1019.2 hPa SSE 9.7 km/h 29 km/h 76 % 0 mm
12:52 25.7 °C 21.1 °C 1018.8 hPa SE 16.1 km/h 29 km/h 76 % 0 mm
12:57 25.8 °C 21 °C 1018.8 hPa SSE 11.3 km/h 25.7 km/h 75 % 0 mm
13:02 25.7 °C 20.9 °C 1018.8 hPa SSE 14.5 km/h 27.4 km/h 75 % 0 mm
13:07 26.1 °C 21.1 °C 1018.5 hPa SE 11.3 km/h 27.4 km/h 74 % 0 mm
13:12 26.1 °C 20.9 °C 1018.5 hPa SSW 8 km/h 27.4 km/h 73 % 0 mm
13:17 26 °C 20.3 °C 1018.5 hPa South 16.1 km/h 29 km/h 71 % 0 mm
13:22 26 °C 20.6 °C 1018.5 hPa SW 14.5 km/h 29 km/h 72 % 0 mm
13:27 25.9 °C 20.5 °C 1018.2 hPa SSE 20.9 km/h 29 km/h 72 % 0 mm
13:32 26.3 °C 20.8 °C 1018.2 hPa SE 8 km/h 25.7 km/h 72 % 0 mm
13:37 26.9 °C 21 °C 1018.2 hPa SW 17.7 km/h 25.7 km/h 70 % 0 mm
13:42 27.1 °C 20.4 °C 1018.2 hPa South 16.1 km/h 25.7 km/h 67 % 0 mm
13:47 26.9 °C 20 °C 1017.8 hPa SSW 14.5 km/h 33.8 km/h 66 % 0 mm
13:52 26.9 °C 20 °C 1017.8 hPa South 16.1 km/h 33.8 km/h 66 % 0 mm
13:57 26.8 °C 19.9 °C 1017.8 hPa SSW 8 km/h 33.8 km/h 66 % 0 mm
14:02 26.9 °C 20.3 °C 1017.8 hPa NE 11.3 km/h 24.1 km/h 67 % 0 mm
14:07 26.9 °C 20 °C 1017.8 hPa SW 20.9 km/h 25.7 km/h 66 % 0 mm
14:12 27.1 °C 20.4 °C 1017.8 hPa SW 12.9 km/h 25.7 km/h 67 % 0 mm
14:17 26.8 °C 19.7 °C 1017.8 hPa SSE 14.5 km/h 25.7 km/h 65 % 0 mm
14:22 26.8 °C 19.9 °C 1017.8 hPa South 8 km/h 25.7 km/h 66 % 0 mm
14:27 27.2 °C 19.8 °C 1017.8 hPa South 11.3 km/h 24.1 km/h 64 % 0 mm
14:32 27.2 °C 19.8 °C 1017.5 hPa South 11.3 km/h 24.1 km/h 64 % 0 mm
14:38 27.3 °C 19.4 °C 1017.8 hPa SSE 19.3 km/h 24.1 km/h 62 % 0 mm
14:43 26.8 °C 19.4 °C 1017.8 hPa SSW 6.4 km/h 24.1 km/h 64 % 0 mm
14:48 27.1 °C 19.7 °C 1017.5 hPa SSE 17.7 km/h 24.1 km/h 64 % 0 mm
14:53 27.2 °C 19.8 °C 1017.5 hPa SSW 16.1 km/h 24.1 km/h 64 % 0 mm
14:58 27.3 °C 19.6 °C 1017.5 hPa South 11.3 km/h 22.5 km/h 63 % 0 mm
15:03 27.1 °C 19.4 °C 1017.5 hPa South 11.3 km/h 22.5 km/h 63 % 0 mm
15:08 26.8 °C 19.4 °C 1017.5 hPa South 14.5 km/h 27.4 km/h 64 % 0 mm
15:13 26.8 °C 19.7 °C 1017.5 hPa SSW 9.7 km/h 27.4 km/h 65 % 0 mm
15:18 26.8 °C 19.4 °C 1017.5 hPa SE 14.5 km/h 27.4 km/h 64 % 0 mm
15:23 26.6 °C 19.7 °C 1017.2 hPa SW 16.1 km/h 25.7 km/h 66 % 0 mm
15:28 26.7 °C 19.6 °C 1017.2 hPa SSE 6.4 km/h 30.6 km/h 65 % 0 mm
15:33 26.5 °C 19.4 °C 1017.2 hPa SW 9.7 km/h 30.6 km/h 65 % 0 mm
15:38 26.4 °C 19.5 °C 1017.2 hPa SSW 6.4 km/h 30.6 km/h 66 % 0 mm
15:43 26.3 °C 19.4 °C 1017.2 hPa SE 11.3 km/h 22.5 km/h 66 % 0 mm
15:48 26.3 °C 19.4 °C 1017.2 hPa SSE 14.5 km/h 22.5 km/h 66 % 0 mm
15:53 26.4 °C 19.5 °C 1017.2 hPa SSE 12.9 km/h 20.9 km/h 66 % 0 mm
15:58 26.2 °C 19.3 °C 1016.8 hPa SSE 6.4 km/h 20.9 km/h 66 % 0 mm
16:03 26.3 °C 19.4 °C 1016.8 hPa SSW 12.9 km/h 20.9 km/h 66 % 0 mm
16:08 26.3 °C 19.7 °C 1016.8 hPa SSW 6.4 km/h 20.9 km/h 67 % 0 mm
16:13 26.2 °C 19.3 °C 1016.8 hPa SE 9.7 km/h 20.9 km/h 66 % 0 mm
16:18 26 °C 19.2 °C 1016.8 hPa SSE 6.4 km/h 20.9 km/h 66 % 0 mm
16:23 25.8 °C 19.2 °C 1016.8 hPa SSE 12.9 km/h 22.5 km/h 67 % 0 mm
16:28 25.8 °C 19.4 °C 1016.8 hPa SSW 11.3 km/h 22.5 km/h 68 % 0 mm
16:33 26 °C 19.4 °C 1016.8 hPa South 17.7 km/h 24.1 km/h 67 % 0 mm
16:38 26.1 °C 19.5 °C 1016.8 hPa SW 6.4 km/h 24.1 km/h 67 % 0 mm
16:43 26.2 °C 19.3 °C 1016.8 hPa South 11.3 km/h 24.1 km/h 66 % 0 mm
16:48 26.1 °C 19.5 °C 1016.5 hPa SSW 11.3 km/h 20.9 km/h 67 % 0 mm
16:53 26.1 °C 19.5 °C 1016.8 hPa South 6.4 km/h 20.9 km/h 67 % 0 mm
16:58 26 °C 19.4 °C 1016.8 hPa SW 17.7 km/h 20.9 km/h 67 % 0 mm
17:03 25.9 °C 19.3 °C 1016.8 hPa SSE 11.3 km/h 22.5 km/h 67 % 0 mm
17:08 25.7 °C 19.1 °C 1016.8 hPa SSW 20.9 km/h 22.5 km/h 67 % 0 mm
17:09 25.7 °C 19.3 °C 1016.8 hPa South 12.9 km/h 22.5 km/h 68 % 0 mm
17:14 25.5 °C 19.2 °C 1016.8 hPa SSW 9.7 km/h 22.5 km/h 68 % 0 mm
17:19 25.3 °C 19.2 °C 1016.8 hPa South 14.5 km/h 24.1 km/h 69 % 0 mm
17:24 25.2 °C 19.1 °C 1016.8 hPa SSW 8 km/h 24.1 km/h 69 % 0 mm
17:29 25.1 °C 19 °C 1016.5 hPa SSE 8 km/h 24.1 km/h 69 % 0 mm
17:34 24.9 °C 19 °C 1016.8 hPa SSE 9.7 km/h 19.3 km/h 70 % 0 mm
17:39 24.8 °C 19 °C 1016.8 hPa South 9.7 km/h 19.3 km/h 70 % 0 mm
17:44 24.7 °C 18.9 °C 1016.5 hPa SSE 12.9 km/h 16.1 km/h 70 % 0 mm
17:49 24.6 °C 18.8 °C 1016.5 hPa South 11.3 km/h 19.3 km/h 70 % 0 mm
17:54 24.5 °C 18.9 °C 1016.5 hPa SE 11.3 km/h 19.3 km/h 71 % 0 mm
17:59 24.3 °C 18.7 °C 1016.5 hPa SSW 11.3 km/h 19.3 km/h 71 % 0 mm
18:04 24.2 °C 18.8 °C 1016.5 hPa SSE 8 km/h 19.3 km/h 72 % 0 mm
18:09 24.2 °C 18.8 °C 1016.5 hPa South 8 km/h 16.1 km/h 72 % 0 mm
18:14 24.1 °C 19 °C 1016.8 hPa South 4.8 km/h 16.1 km/h 73 % 0 mm
18:19 23.9 °C 18.8 °C 1016.5 hPa South 9.7 km/h 17.7 km/h 73 % 0 mm
18:24 23.8 °C 18.7 °C 1016.5 hPa SSW 9.7 km/h 17.7 km/h 73 % 0 mm
18:29 23.7 °C 18.8 °C 1016.5 hPa South 4.8 km/h 17.7 km/h 74 % 0 mm
18:34 23.6 °C 18.7 °C 1016.5 hPa SSE 3.2 km/h 14.5 km/h 74 % 0 mm
18:39 23.4 °C 18.5 °C 1016.5 hPa South 6.4 km/h 14.5 km/h 74 % 0 mm
18:44 23.3 °C 18.4 °C 1016.5 hPa SSW 6.4 km/h 12.9 km/h 74 % 0 mm
18:49 23.3 °C 18.4 °C 1016.8 hPa South 4.8 km/h 12.9 km/h 74 % 0 mm
18:54 23.2 °C 18.5 °C 1016.8 hPa SSW 3.2 km/h 12.9 km/h 75 % 0 mm
18:59 23.1 °C 18.4 °C 1016.8 hPa ESE 6.4 km/h 17.7 km/h 75 % 0 mm
19:04 23.1 °C 18.4 °C 1016.8 hPa South 4.8 km/h 17.7 km/h 75 % 0 mm
19:09 22.9 °C 18.4 °C 1016.8 hPa South 4.8 km/h 17.7 km/h 76 % 0 mm
19:14 22.9 °C 18.7 °C 1017.2 hPa SSW 6.4 km/h 14.5 km/h 77 % 0 mm
19:19 22.8 °C 18.6 °C 1017.2 hPa SW 8 km/h 14.5 km/h 77 % 0 mm
19:24 22.7 °C 18.7 °C 1017.2 hPa South 4.8 km/h 14.5 km/h 78 % 0 mm
19:29 22.6 °C 18.6 °C 1017.2 hPa SSE 4.8 km/h 9.7 km/h 78 % 0 mm
19:34 22.6 °C 18.8 °C 1017.2 hPa SSW 3.2 km/h 8 km/h 79 % 0 mm
19:39 22.4 °C 18.8 °C 1017.2 hPa SE 6.4 km/h 8 km/h 80 % 0 mm
19:44 22.4 °C 19 °C 1017.2 hPa South 3.2 km/h 8 km/h 81 % 0 mm
19:49 22.3 °C 19.1 °C 1017.2 hPa SSE 8 km/h 9.7 km/h 82 % 0 mm
19:54 22.3 °C 19.3 °C 1017.2 hPa SSW 4.8 km/h 14.5 km/h 83 % 0 mm
19:59 22.2 °C 19.4 °C 1017.2 hPa SSE 6.4 km/h 14.5 km/h 84 % 0 mm
20:04 22.1 °C 19.5 °C 1017.2 hPa SSE 3.2 km/h 14.5 km/h 85 % 0 mm
20:09 22 °C 19.4 °C 1017.2 hPa ESE 4.8 km/h 12.9 km/h 85 % 0 mm
20:14 21.9 °C 19.5 °C 1017.2 hPa South 3.2 km/h 9.7 km/h 86 % 0 mm
20:19 21.8 °C 19.4 °C 1017.2 hPa SSE 4.8 km/h 9.7 km/h 86 % 0 mm
20:24 21.7 °C 19.4 °C 1017.2 hPa SSE 1.6 km/h 9.7 km/h 87 % 0 mm
20:29 21.7 °C 19.4 °C 1017.2 hPa South 6.4 km/h 9.7 km/h 87 % 0 mm
20:34 21.6 °C 19.3 °C 1017.5 hPa SE 3.2 km/h 8 km/h 87 % 0 mm
20:39 21.6 °C 19.5 °C 1017.5 hPa SSW 6.4 km/h 8 km/h 88 % 0 mm
20:44 21.4 °C 19.3 °C 1017.5 hPa South 16.1 km/h 16.1 km/h 88 % 0 mm
20:49 21.5 °C 19.4 °C 1017.5 hPa SE 3.2 km/h 17.7 km/h 88 % 0 mm
20:54 21.5 °C 19.4 °C 1017.5 hPa South 4.8 km/h 17.7 km/h 88 % 0 mm
20:59 21.5 °C 19.4 °C 1017.5 hPa ESE 8 km/h 17.7 km/h 88 % 0 mm
21:04 21.5 °C 19.6 °C 1017.5 hPa SE 9.7 km/h 12.9 km/h 89 % 0 mm
21:09 21.5 °C 19.6 °C 1017.5 hPa SSE 4.8 km/h 9.7 km/h 89 % 0 mm
21:14 21.5 °C 19.6 °C 1017.5 hPa SSW 4.8 km/h 9.7 km/h 89 % 0 mm
21:19 21.5 °C 19.6 °C 1017.5 hPa SSE 4.8 km/h 9.7 km/h 89 % 0 mm
21:24 21.4 °C 19.5 °C 1017.5 hPa SSE 8 km/h 16.1 km/h 89 % 0 mm
21:29 21.4 °C 19.5 °C 1017.5 hPa SW 3.2 km/h 16.1 km/h 89 % 0 mm
21:34 21.4 °C 19.7 °C 1017.5 hPa SSW 3.2 km/h 16.1 km/h 90 % 0 mm
21:39 21.3 °C 19.6 °C 1017.8 hPa East 6.4 km/h 14.5 km/h 90 % 0 mm
21:44 21.3 °C 19.6 °C 1017.8 hPa SSE 3.2 km/h 14.5 km/h 90 % 0 mm
21:49 21.3 °C 19.8 °C 1017.8 hPa SSW 6.4 km/h 11.3 km/h 91 % 0 mm
21:54 21.2 °C 19.7 °C 1017.5 hPa South 3.2 km/h 8 km/h 91 % 0 mm
21:59 21.2 °C 19.7 °C 1017.5 hPa SSE 4.8 km/h 11.3 km/h 91 % 0 mm
22:04 21.2 °C 19.7 °C 1017.5 hPa SE 3.2 km/h 11.3 km/h 91 % 0 mm
22:09 21.2 °C 19.7 °C 1017.8 hPa SW 9.7 km/h 11.3 km/h 91 % 0 mm
22:14 21.2 °C 19.7 °C 1017.5 hPa South 4.8 km/h 11.3 km/h 91 % 0 mm
22:19 21.2 °C 19.7 °C 1017.5 hPa SSW 9.7 km/h 11.3 km/h 91 % 0 mm
22:24 21.1 °C 19.6 °C 1017.5 hPa SSE 9.7 km/h 11.3 km/h 91 % 0 mm
22:29 21.1 °C 19.6 °C 1017.5 hPa SSW 9.7 km/h 11.3 km/h 91 % 0 mm
22:34 21.1 °C 19.6 °C 1017.5 hPa SSW 8 km/h 14.5 km/h 91 % 0 mm
22:39 21.1 °C 19.6 °C 1017.5 hPa SSE 11.3 km/h 16.1 km/h 91 % 0 mm
22:44 21.1 °C 19.6 °C 1017.5 hPa SSE 12.9 km/h 16.1 km/h 91 % 0 mm
22:49 21 °C 19.5 °C 1017.5 hPa South 14.5 km/h 16.1 km/h 91 % 0 mm
22:54 20.9 °C 19.4 °C 1017.5 hPa SSW 6.4 km/h 17.7 km/h 91 % 0 mm
22:59 20.9 °C 19.6 °C 1017.5 hPa SSE 4.8 km/h 17.7 km/h 92 % 0 mm
23:04 20.9 °C 19.6 °C 1017.5 hPa South 4.8 km/h 17.7 km/h 92 % 0 mm
23:09 20.8 °C 19.5 °C 1017.2 hPa SSW 9.7 km/h 14.5 km/h 92 % 0 mm
23:14 20.8 °C 19.5 °C 1017.2 hPa SSW 6.4 km/h 16.1 km/h 92 % 0 mm
23:19 20.8 °C 19.5 °C 1017.2 hPa SE 3.2 km/h 16.1 km/h 92 % 0 mm
23:24 20.8 °C 19.5 °C 1017.5 hPa South 11.3 km/h 16.1 km/h 92 % 0 mm
23:29 20.8 °C 19.5 °C 1017.5 hPa SW 9.7 km/h 17.7 km/h 92 % 0 mm
23:35 20.8 °C 19.5 °C 1017.5 hPa SSW 6.4 km/h 17.7 km/h 92 % 0 mm
23:40 20.8 °C 19.5 °C 1017.5 hPa SSE 3.2 km/h 17.7 km/h 92 % 0 mm
23:45 20.8 °C 19.5 °C 1017.5 hPa SW 8 km/h 12.9 km/h 92 % 0 mm
23:50 20.8 °C 19.5 °C 1017.5 hPa SSE 6.4 km/h 11.3 km/h 92 % 0 mm
23:55 20.8 °C 19.5 °C 1017.2 hPa SSW 6.4 km/h 12.9 km/h 92 % 0 mm
Spring, Texas: Villages of Bridgestone
Compliments of Weather Underground - 2.75 mb

Script developed by  Jim McMurry - jmcmurry@mwt.net Adapted for the template by  Wim van der Kuil - Leuven-Template.eu

You find our weather info also at:

UK Metoffice

WeatherCloud

Weather Underground

Mid-South Weather Network

AWEKAS

Citizen Weather Observer Program (CWOP)

HAMweather, WeatherForYou, PWS Weather

Equipment we use:

Weather-station
Davis Vantage Vue

Weather-program
Meteohub

Weather-server
Debian 7.9 x86 (Guest)

Provider
DreamHost

Davis Vantage Vue

Meteohub

Debian 7.9 x86 (Guest)

DreamHost